Darstellungsparameter: Aktuell verwendete Einstellungen:
Skalierung der Graphiken ... ?
xyx+y,   Skalierungsfaktor:      Skalierung: Modus: x, Faktor: 1
Darstellungszeitraum ... ?
Vom - - bis: - -   Zeitraum: 19.07.2019 - 19.07.2019
Min/Max/Avg-Anzeige ... ?
Zeige MMA aktuell
Zeige MMA Monat
Zeige MMA alles
Zeige --A aktuell
Zeige --A Monat
Zeige --A alles
Keine MMA-Anzeige
MMA:
Keine MMA-Graphiken
MMA-Basis: 19.07.2019 - 19.07.2019
Quicknavigation für Darstellung... ?
Tage:      1T, 2T, 3T, 5T -1T -2T -3T -5T +1T +2T +3T +5T
Wochen: 1W, 2W, 3W -1W -2W -3W +1W +2W +3W
Monate: 1M, 3M, 6M -1M -3M -6M +1M +3M +6M
Jahre:    1J, 3J, 5J, 10J -1J -3J -5J -10J +1J +3J +5J +10J
Nutze für die Darstellung ... ?
Originaldaten oder Mittelwerte auf ...
Stundenbasis Tagesbasis Wochenbasis
Monatsbasis Jahresbasis      Datenbasis: Original-Daten
Darstellen als:
Statistik (Auto) Statistik J:M      Darstellung:
Zur Graphik,    zurück zur Übersicht aller Sensoren.
 
Tabellarische Datenbersicht: ?
 
Sensor: Nr:Datum:Temp:Feuchte:Taupunkt:
Aussen-T/F 1 19-07-2019 00:00:00 19.6 C 72 % 14.42 C
2 19-07-2019 00:05:00 19.6 C 73 % 14.63 C
3 19-07-2019 00:10:00 19.5 C 73 % 14.53 C
4 19-07-2019 00:15:00 19.5 C 74 % 14.74 C
5 19-07-2019 00:20:00 19.4 C 74 % 14.65 C
6 19-07-2019 00:25:00 19.3 C 74 % 14.55 C
7 19-07-2019 00:30:00 19.3 C 74 % 14.55 C
8 19-07-2019 00:35:00 19.2 C 74 % 14.46 C
9 19-07-2019 00:40:00 19.2 C 74 % 14.46 C
10 19-07-2019 00:45:00 19.2 C 75 % 14.66 C
11 19-07-2019 00:50:00 19.1 C 76 % 14.77 C
12 19-07-2019 00:55:00 19.1 C 76 % 14.77 C
13 19-07-2019 01:00:00 19 C 76 % 14.68 C
14 19-07-2019 01:05:00 18.9 C 77 % 14.78 C
15 19-07-2019 01:10:00 18.9 C 78 % 14.98 C
16 19-07-2019 01:15:00 18.9 C 79 % 15.18 C
17 19-07-2019 01:20:00 18.8 C 81 % 15.47 C
18 19-07-2019 01:25:00 18.7 C 83 % 15.75 C
19 19-07-2019 01:30:00 18.5 C 84 % 15.75 C
20 19-07-2019 01:35:00 18.3 C 84 % 15.55 C
21 19-07-2019 01:40:00 18.1 C 85 % 15.54 C
22 19-07-2019 01:45:00 17.9 C 87 % 15.71 C
23 19-07-2019 01:50:00 17.8 C 87 % 15.61 C
24 19-07-2019 01:55:00 17.7 C 88 % 15.69 C
25 19-07-2019 02:00:00 17.6 C 88 % 15.59 C
Sensor: Nr:Datum:Temp:Feuchte:Taupunkt:
Aussen-T/F 26 19-07-2019 02:05:00 17.4 C 89 % 15.57 C
27 19-07-2019 02:10:00 17.3 C 89 % 15.47 C
28 19-07-2019 02:15:00 17.2 C 89 % 15.37 C
29 19-07-2019 02:20:00 17.1 C 89 % 15.27 C
30 19-07-2019 02:25:00 17 C 90 % 15.35 C
31 19-07-2019 02:30:00 16.9 C 90 % 15.25 C
32 19-07-2019 02:35:00 16.9 C 91 % 15.42 C
33 19-07-2019 02:40:00 16.9 C 91 % 15.42 C
34 19-07-2019 02:45:00 16.8 C 91 % 15.32 C
35 19-07-2019 02:50:00 16.8 C 91 % 15.32 C
36 19-07-2019 02:55:00 16.8 C 91 % 15.32 C
37 19-07-2019 03:00:00 16.7 C 91 % 15.22 C
38 19-07-2019 03:05:00 16.7 C 91 % 15.22 C
39 19-07-2019 03:10:00 16.7 C 92 % 15.39 C
40 19-07-2019 03:15:00 16.7 C 92 % 15.39 C
41 19-07-2019 03:20:00 16.6 C 92 % 15.3 C
42 19-07-2019 03:25:00 16.6 C 92 % 15.3 C
43 19-07-2019 03:30:00 16.6 C 93 % 15.46 C
44 19-07-2019 03:35:00 16.6 C 93 % 15.46 C
45 19-07-2019 03:40:00 16.6 C 93 % 15.46 C
46 19-07-2019 03:45:00 16.5 C 93 % 15.36 C
47 19-07-2019 03:50:00 16.5 C 93 % 15.36 C
48 19-07-2019 03:55:00 16.5 C 93 % 15.36 C
49 19-07-2019 04:00:00 16.5 C 93 % 15.36 C
50 19-07-2019 04:05:00 16.4 C 93 % 15.27 C
Sensor: Nr:Datum:Temp:Feuchte:Taupunkt:
Aussen-T/F 51 19-07-2019 04:10:00 16.4 C 93 % 15.27 C
52 19-07-2019 04:15:00 16.4 C 93 % 15.27 C
53 19-07-2019 04:20:00 16.4 C 93 % 15.27 C
54 19-07-2019 04:25:00 16.4 C 93 % 15.27 C
55 19-07-2019 04:30:00 16.4 C 93 % 15.27 C
56 19-07-2019 04:35:00 16.4 C 94 % 15.43 C
57 19-07-2019 04:40:00 16.3 C 94 % 15.33 C
58 19-07-2019 04:45:00 16.3 C 94 % 15.33 C
59 19-07-2019 04:50:00 16.3 C 94 % 15.33 C
60 19-07-2019 04:55:00 16.3 C 94 % 15.33 C
61 19-07-2019 05:00:00 16.3 C 94 % 15.33 C
62 19-07-2019 05:05:00 16.3 C 94 % 15.33 C
63 19-07-2019 05:10:00 16.3 C 94 % 15.33 C
64 19-07-2019 05:15:00 16.3 C 94 % 15.33 C
65 19-07-2019 05:20:00 16.3 C 94 % 15.33 C
66 19-07-2019 05:25:00 16.3 C 94 % 15.33 C
67 19-07-2019 05:30:00 16.3 C 94 % 15.33 C
68 19-07-2019 05:35:00 16.3 C 94 % 15.33 C
69 19-07-2019 05:40:00 16.3 C 94 % 15.33 C
70 19-07-2019 05:45:00 16.3 C 94 % 15.33 C
71 19-07-2019 05:50:00 16.3 C 95 % 15.5 C
72 19-07-2019 05:55:00 16.3 C 95 % 15.5 C
73 19-07-2019 06:00:00 16.3 C 95 % 15.5 C
74 19-07-2019 06:05:00 16.3 C 95 % 15.5 C
75 19-07-2019 06:10:00 16.3 C 95 % 15.5 C
Sensor: Nr:Datum:Temp:Feuchte:Taupunkt:
Aussen-T/F 76 19-07-2019 06:15:00 16.3 C 95 % 15.5 C
77 19-07-2019 06:20:00 16.3 C 95 % 15.5 C
78 19-07-2019 06:25:00 16.3 C 95 % 15.5 C
79 19-07-2019 06:30:00 16.4 C 95 % 15.6 C
80 19-07-2019 06:35:00 16.4 C 95 % 15.6 C
81 19-07-2019 06:40:00 16.4 C 95 % 15.6 C
82 19-07-2019 06:45:00 16.4 C 95 % 15.6 C
83 19-07-2019 06:50:00 16.4 C 95 % 15.6 C
84 19-07-2019 06:55:00 16.4 C 95 % 15.6 C
85 19-07-2019 07:00:00 16.5 C 95 % 15.7 C
86 19-07-2019 07:05:00 16.6 C 95 % 15.8 C
87 19-07-2019 07:10:00 16.6 C 95 % 15.8 C
88 19-07-2019 07:15:00 16.6 C 95 % 15.8 C
89 19-07-2019 07:20:00 16.6 C 95 % 15.8 C
90 19-07-2019 07:25:00 16.7 C 95 % 15.9 C
91 19-07-2019 07:30:00 16.7 C 95 % 15.9 C
92 19-07-2019 07:35:00 16.7 C 95 % 15.9 C
93 19-07-2019 07:40:00 16.8 C 95 % 15.99 C
94 19-07-2019 07:45:00 16.8 C 96 % 16.16 C
95 19-07-2019 07:50:00 16.9 C 96 % 16.26 C
96 19-07-2019 07:55:00 16.9 C 96 % 16.26 C
97 19-07-2019 08:00:00 16.9 C 96 % 16.26 C
98 19-07-2019 08:05:00 16.9 C 96 % 16.26 C
99 19-07-2019 08:10:00 17 C 96 % 16.36 C
100 19-07-2019 08:15:00 17.1 C 96 % 16.46 C
Sensor: Nr:Datum:Temp:Feuchte:Taupunkt:
Aussen-T/F 101 19-07-2019 08:20:00 17.1 C 96 % 16.46 C
102 19-07-2019 08:25:00 17.2 C 96 % 16.56 C
103 19-07-2019 08:30:00 17.3 C 96 % 16.66 C
104 19-07-2019 08:35:00 17.4 C 96 % 16.76 C
105 19-07-2019 08:40:00 17.4 C 96 % 16.76 C
106 19-07-2019 08:45:00 17.4 C 96 % 16.76 C
107 19-07-2019 08:50:00 17.5 C 96 % 16.85 C
108 19-07-2019 08:55:00 17.6 C 96 % 16.95 C
109 19-07-2019 09:00:00 17.7 C 96 % 17.05 C
110 19-07-2019 09:05:00 17.8 C 96 % 17.15 C
111 19-07-2019 09:10:00 17.8 C 96 % 17.15 C
112 19-07-2019 09:15:00 17.8 C 95 % 16.99 C
113 19-07-2019 09:20:00 17.9 C 95 % 17.09 C
114 19-07-2019 09:25:00 17.9 C 95 % 17.09 C
115 19-07-2019 09:30:00 18.1 C 95 % 17.29 C
116 19-07-2019 09:35:00 18.1 C 95 % 17.29 C
117 19-07-2019 09:40:00 18.2 C 94 % 17.22 C
118 19-07-2019 09:45:00 18.3 C 94 % 17.32 C
119 19-07-2019 09:50:00 18.3 C 94 % 17.32 C
120 19-07-2019 09:55:00 18.4 C 93 % 17.25 C
121 19-07-2019 10:00:00 18.6 C 93 % 17.45 C
122 19-07-2019 10:05:00 18.8 C 94 % 17.81 C
123 19-07-2019 10:10:00 18.9 C 92 % 17.57 C
124 19-07-2019 10:15:00 19 C 92 % 17.67 C
125 19-07-2019 10:20:00 19.1 C 91 % 17.6 C
Sensor: Nr:Datum:Temp:Feuchte:Taupunkt:
Aussen-T/F 126 19-07-2019 10:25:00 19.1 C 90 % 17.42 C
127 19-07-2019 10:30:00 19.3 C 90 % 17.62 C
128 19-07-2019 10:35:00 19.5 C 89 % 17.64 C
129 19-07-2019 10:40:00 19.6 C 89 % 17.74 C
130 19-07-2019 10:45:00 19.7 C 88 % 17.66 C
131 19-07-2019 10:50:00 19.8 C 89 % 17.93 C
132 19-07-2019 10:55:00 19.9 C 87 % 17.67 C
133 19-07-2019 11:00:00 19.9 C 87 % 17.67 C
134 19-07-2019 11:05:00 20 C 87 % 17.77 C
135 19-07-2019 11:10:00 20 C 85 % 17.4 C
136 19-07-2019 11:15:00 20.1 C 85 % 17.5 C
137 19-07-2019 11:20:00 20.3 C 85 % 17.7 C
138 19-07-2019 11:25:00 20.6 C 84 % 17.8 C
139 19-07-2019 11:30:00 20.8 C 83 % 17.81 C
140 19-07-2019 11:35:00 20.9 C 83 % 17.9 C
141 19-07-2019 11:40:00 20.9 C 81 % 17.52 C
142 19-07-2019 11:45:00 20.8 C 81 % 17.42 C
143 19-07-2019 11:50:00 20.7 C 82 % 17.52 C
144 19-07-2019 11:55:00 20.7 C 81 % 17.32 C
145 19-07-2019 12:00:00 20.4 C 83 % 17.42 C
146 19-07-2019 12:05:00 20.2 C 84 % 17.41 C
147 19-07-2019 12:10:00 20.1 C 86 % 17.68 C
148 19-07-2019 12:15:00 20.1 C 88 % 18.05 C
149 19-07-2019 12:20:00 19.9 C 88 % 17.85 C
150 19-07-2019 12:25:00 19.8 C 87 % 17.57 C
Sensor: Nr:Datum:Temp:Feuchte:Taupunkt:
Aussen-T/F 151 19-07-2019 12:30:00 19.7 C 88 % 17.66 C
152 19-07-2019 12:35:00 19.7 C 87 % 17.47 C
153 19-07-2019 12:40:00 19.8 C 87 % 17.57 C
154 19-07-2019 12:45:00 20.1 C 87 % 17.87 C
155 19-07-2019 12:50:00 20.3 C 85 % 17.7 C
156 19-07-2019 12:55:00 20.4 C 84 % 17.61 C
157 19-07-2019 13:00:00 20.6 C 85 % 17.99 C
158 19-07-2019 13:05:00 20.7 C 85 % 18.09 C
159 19-07-2019 13:10:00 20.9 C 83 % 17.9 C
160 19-07-2019 13:15:00 21.2 C 78 % 17.21 C
161 19-07-2019 13:20:00 21.6 C 76 % 17.19 C
162 19-07-2019 13:25:00 22.1 C 75 % 17.46 C
163 19-07-2019 13:30:00 22.5 C 74 % 17.63 C
164 19-07-2019 13:35:00 22.8 C 70 % 17.04 C
165 19-07-2019 13:40:00 22.9 C 69 % 16.91 C
166 19-07-2019 13:45:00 22.9 C 67 % 16.45 C
167 19-07-2019 13:50:00 22.8 C 67 % 16.35 C
168 19-07-2019 13:55:00 22.7 C 69 % 16.72 C
169 19-07-2019 14:00:00 22.7 C 71 % 17.17 C
170 19-07-2019 14:05:00 22.7 C 69 % 16.72 C
171 19-07-2019 14:10:00 22.7 C 69 % 16.72 C
172 19-07-2019 14:15:00 22.8 C 71 % 17.27 C
173 19-07-2019 14:20:00 23 C 62 % 15.33 C
174 19-07-2019 14:25:00 23.4 C 62 % 15.71 C
175 19-07-2019 14:30:00 23.8 C 56 % 14.5 C
Sensor: Nr:Datum:Temp:Feuchte:Taupunkt:
Aussen-T/F 176 19-07-2019 14:35:00 23.9 C 56 % 14.59 C
177 19-07-2019 14:40:00 24.2 C 57 % 15.14 C
178 19-07-2019 14:45:00 24.4 C 51 % 13.61 C
179 19-07-2019 14:50:00 24.3 C 54 % 14.4 C
180 19-07-2019 14:55:00 24.4 C 53 % 14.2 C
181 19-07-2019 15:00:00 24.5 C 54 % 14.58 C
182 19-07-2019 15:05:00 24.6 C 51 % 13.79 C
183 19-07-2019 15:10:00 24.6 C 54 % 14.68 C
184 19-07-2019 15:15:00 24.8 C 54 % 14.86 C
185 19-07-2019 15:20:00 25 C 54 % 15.05 C
186 19-07-2019 15:25:00 24.9 C 53 % 14.66 C
187 19-07-2019 15:30:00 24.9 C 51 % 14.07 C
188 19-07-2019 15:35:00 25.1 C 52 % 14.55 C
189 19-07-2019 15:40:00 25.2 C 54 % 15.23 C
190 19-07-2019 15:45:00 25.1 C 53 % 14.85 C
191 19-07-2019 15:50:00 24.9 C 53 % 14.66 C
192 19-07-2019 15:55:00 24.9 C 51 % 14.07 C
193 19-07-2019 16:00:00 24.9 C 52 % 14.37 C
194 19-07-2019 16:05:00 24.9 C 50 % 13.77 C
195 19-07-2019 16:10:00 24.9 C 51 % 14.07 C
196 19-07-2019 16:15:00 24.9 C 50 % 13.77 C
197 19-07-2019 16:20:00 25 C 52 % 14.46 C
198 19-07-2019 16:25:00 25 C 51 % 14.16 C
199 19-07-2019 16:30:00 25.2 C 50 % 14.04 C
200 19-07-2019 16:35:00 25.4 C 50 % 14.22 C
Sensor: Nr:Datum:Temp:Feuchte:Taupunkt:
Aussen-T/F 201 19-07-2019 16:40:00 25.7 C 50 % 14.5 C
202 19-07-2019 16:45:00 25.8 C 50 % 14.59 C
203 19-07-2019 16:50:00 25.6 C 51 % 14.71 C
204 19-07-2019 16:55:00 25.3 C 50 % 14.13 C
205 19-07-2019 17:00:00 25.5 C 51 % 14.62 C
206 19-07-2019 17:05:00 25.9 C 51 % 14.99 C
207 19-07-2019 17:10:00 26 C 51 % 15.08 C
208 19-07-2019 17:15:00 26.1 C 49 % 14.55 C
209 19-07-2019 17:20:00 26.3 C 48 % 14.42 C
210 19-07-2019 17:25:00 26.5 C 46 % 13.94 C
211 19-07-2019 17:30:00 26.2 C 47 % 14 C
212 19-07-2019 17:35:00 26 C 49 % 14.46 C
213 19-07-2019 17:40:00 25.8 C 48 % 13.96 C
214 19-07-2019 17:45:00 25.6 C 51 % 14.71 C
215 19-07-2019 17:50:00 25.4 C 53 % 15.13 C
216 19-07-2019 17:55:00 25.7 C 51 % 14.81 C
217 19-07-2019 18:00:00 25.9 C 50 % 14.68 C
218 19-07-2019 18:05:00 25.9 C 50 % 14.68 C
219 19-07-2019 18:10:00 25.7 C 49 % 14.19 C
220 19-07-2019 18:15:00 25.7 C 49 % 14.19 C
221 19-07-2019 18:20:00 25.6 C 50 % 14.41 C
222 19-07-2019 18:25:00 25.4 C 49 % 13.91 C
223 19-07-2019 18:30:00 25.3 C 50 % 14.13 C
224 19-07-2019 18:35:00 25.3 C 50 % 14.13 C
225 19-07-2019 18:40:00 25.2 C 54 % 15.23 C
Sensor: Nr:Datum:Temp:Feuchte:Taupunkt:
Aussen-T/F 226 19-07-2019 18:45:00 25.2 C 52 % 14.65 C
227 19-07-2019 18:50:00 25.1 C 58 % 16.26 C
228 19-07-2019 18:55:00 24.9 C 52 % 14.37 C
229 19-07-2019 19:00:00 24.8 C 53 % 14.57 C
230 19-07-2019 19:05:00 24.9 C 59 % 16.34 C
231 19-07-2019 19:10:00 24.9 C 60 % 16.6 C
232 19-07-2019 19:15:00 25.1 C 52 % 14.55 C
233 19-07-2019 19:20:00 25.2 C 63 % 17.65 C
234 19-07-2019 19:25:00 25.1 C 60 % 16.79 C
235 19-07-2019 19:30:00 24.9 C 63 % 17.37 C
236 19-07-2019 19:35:00 24.8 C 63 % 17.28 C
237 19-07-2019 19:40:00 24.7 C 62 % 16.93 C
238 19-07-2019 19:45:00 24.5 C 60 % 16.23 C
239 19-07-2019 19:50:00 24.3 C 62 % 16.55 C
240 19-07-2019 19:55:00 24.2 C 65 % 17.2 C
241 19-07-2019 20:00:00 24.1 C 64 % 16.86 C
242 19-07-2019 20:05:00 23.9 C 64 % 16.68 C
243 19-07-2019 20:10:00 23.8 C 63 % 16.33 C
244 19-07-2019 20:15:00 23.7 C 63 % 16.24 C
245 19-07-2019 20:20:00 23.7 C 65 % 16.73 C
246 19-07-2019 20:25:00 23.5 C 63 % 16.05 C
247 19-07-2019 20:30:00 23.3 C 63 % 15.86 C
248 19-07-2019 20:35:00 23.1 C 63 % 15.67 C
249 19-07-2019 20:40:00 22.8 C 64 % 15.64 C
250 19-07-2019 20:45:00 22.6 C 66 % 15.93 C
Sensor: Nr:Datum:Temp:Feuchte:Taupunkt:
Aussen-T/F 251 19-07-2019 20:50:00 22.4 C 66 % 15.74 C
252 19-07-2019 20:55:00 22.2 C 67 % 15.78 C
253 19-07-2019 21:00:00 22 C 67 % 15.59 C
254 19-07-2019 21:05:00 21.8 C 68 % 15.63 C
255 19-07-2019 21:10:00 21.6 C 69 % 15.67 C
256 19-07-2019 21:15:00 21.3 C 70 % 15.61 C
257 19-07-2019 21:20:00 21.1 C 70 % 15.42 C
258 19-07-2019 21:25:00 20.9 C 72 % 15.66 C
259 19-07-2019 21:30:00 20.8 C 72 % 15.57 C
260 19-07-2019 21:35:00 20.7 C 73 % 15.69 C
261 19-07-2019 21:40:00 20.4 C 73 % 15.4 C
262 19-07-2019 21:45:00 20.3 C 74 % 15.51 C
263 19-07-2019 21:50:00 20.1 C 75 % 15.53 C
264 19-07-2019 21:55:00 19.9 C 76 % 15.54 C
265 19-07-2019 22:00:00 19.8 C 76 % 15.45 C
266 19-07-2019 22:05:00 19.6 C 77 % 15.46 C
267 19-07-2019 22:10:00 19.5 C 78 % 15.56 C
268 19-07-2019 22:15:00 19.3 C 78 % 15.37 C
269 19-07-2019 22:20:00 19.2 C 79 % 15.47 C
270 19-07-2019 22:25:00 19.2 C 79 % 15.47 C
271 19-07-2019 22:30:00 19.1 C 80 % 15.57 C
272 19-07-2019 22:35:00 19.1 C 80 % 15.57 C
273 19-07-2019 22:40:00 19 C 80 % 15.47 C
274 19-07-2019 22:45:00 18.9 C 80 % 15.38 C
275 19-07-2019 22:50:00 18.9 C 81 % 15.57 C
Sensor: Nr:Datum:Temp:Feuchte:Taupunkt:
Aussen-T/F 276 19-07-2019 22:55:00 18.9 C 81 % 15.57 C
277 19-07-2019 23:00:00 18.8 C 81 % 15.47 C
278 19-07-2019 23:05:00 18.8 C 82 % 15.66 C
279 19-07-2019 23:10:00 18.8 C 82 % 15.66 C
280 19-07-2019 23:15:00 18.7 C 82 % 15.57 C
281 19-07-2019 23:20:00 18.7 C 82 % 15.57 C
282 19-07-2019 23:25:00 18.6 C 83 % 15.66 C
283 19-07-2019 23:30:00 18.5 C 83 % 15.56 C
284 19-07-2019 23:35:00 18.4 C 83 % 15.46 C
285 19-07-2019 23:40:00 18.4 C 84 % 15.65 C
286 19-07-2019 23:45:00 18.3 C 84 % 15.55 C
287 19-07-2019 23:50:00 18.2 C 84 % 15.45 C
288 19-07-2019 23:55:00 18.1 C 85 % 15.54 C

Legende:
   Min
   Max


Maximal/Minimal-Werte vom 19.07.2019 - 19.07.2019

Sensor Min Max Avg
Temp
(Aussen-T/F)
16.3 °C
19-07-2019  04:40:00
26.5 °C
19-07-2019  17:25:00
20.24 °C
Feuchte
(Aussen-T/F)
46 %
19-07-2019  17:25:00
96 %
19-07-2019  07:45:00
77.73 %
Taupunkt
(Aussen-T/F)
13.61 C
19-07-2019  14:45:00
18.09 C
19-07-2019  13:05:00
15.76 C

Die Daten stammen von einer Davis Vantage Pro 2 Wetter-Station und werden unter Linux mit der Software wview2wettercgi und aufbereitet. Alle Angaben erfolgen ohne Gewähr für ihre Vollständigkeit oder Richtigkeit.
Kontakt: Rainer Krienke krienke@uni-koblenz.de . Meine Webseiten an der Uni Koblenz oder privat.
Version: $Revision: 0.78 $